[[{"header":{"parameterUnit":"m.s-1","parameterCategory":1,"la1":30.2991,"la2":30.254,"lo1":-89.0895,"lo2":-89.0444,"dy":0.0017,"dx":0.0017,"nx":28,"ny":28,"refTime":"2024-11-23T03:00:00:Z","depth":0,"parameterNumber":2,"parameterNumberName":"U-component_of_WINDS"},"data":[0,0,0,0,0,0,0,0,0,0,0,0,0,0,0,0,0,0,0,0,0,0,0,0,0,0,0,0,0,0,0,0,0,0,0,0,0,0,0,0,0,0,0,0,0,0,0,0,0,0,0,0,0,0,0,0,0,0,-2.584,-2.584,0,-2.5856,-2.5856,-2.5856,-2.5775,-2.5772,-2.577,-2.5768,-2.5784,-2.5787,-2.5789,0,0,0,0,0,0,0,0,0,0,0,0,0,-2.5739,-2.5741,-2.584,-2.584,-2.584,-2.5856,-2.5856,-2.5856,-2.5775,-2.5772,-2.5769,-2.5767,-2.5783,-2.5786,-2.5789,0,0,0,0,0,0,0,0,0,0,0,0,0,-2.5772,-2.5742,-2.584,-2.5802,-2.5798,-2.5856,-2.5856,-2.5856,-2.5776,-2.5772,-2.5769,-2.5765,-2.5782,-2.5786,-2.579,-2.5885,0,0,-2.5802,-2.5804,0,0,0,0,0,0,0,0,-2.577,-2.5776,-2.5807,-2.5804,-2.5801,-2.581,-2.5826,-2.5866,-2.5777,-2.5784,-2.5768,-2.5764,-2.5795,-2.5798,-2.5809,-2.5885,-2.5886,-2.5802,-2.5805,-2.5806,-2.5807,0,0,0,0,0,0,0,-2.5768,-2.5774,-2.5846,-2.5808,-2.5804,-2.5784,-2.5784,-2.5833,-2.5809,-2.5783,-2.5778,-2.5781,-2.5793,-2.5805,-2.5808,-2.5886,-2.5802,-2.5806,-2.5808,-2.581,-2.6041,-2.6045,0,0,0,0,0,0,-2.5771,-2.5773,-2.5846,-2.5847,-2.5776,-2.5788,-2.5789,-2.581,-2.5809,-2.5805,-2.5784,-2.5777,-2.58,-2.5804,-2.5809,-2.592,-2.5806,-2.581,-2.5812,-2.6037,-2.6042,-2.6046,0,0,0,0,0,0,-2.5769,-2.5778,-2.5845,-2.5808,-2.5815,-2.5794,-2.5818,-2.5813,-2.5825,-2.5809,-2.5804,-2.58,-2.5798,-2.5803,-2.5866,-2.5919,-2.5812,-2.5815,-2.6033,-2.6039,-2.6044,-2.6142,0,0,0,0,0,0,-2.5766,-2.5778,-2.5814,-2.581,-2.5818,-2.5903,-2.5822,-2.5815,-2.5832,-2.5823,-2.5823,-2.582,-2.5795,-2.5861,-2.587,-2.5923,-2.5818,-2.6028,-2.6036,-2.6042,-2.6134,-2.6151,-2.6165,0,0,0,0,0,-2.5763,-2.5841,-2.5816,-2.5825,-2.5862,-2.5906,-2.591,-2.588,-2.5836,-2.5872,-2.5862,-2.582,-2.5912,-2.5868,-2.5878,-2.5932,-2.6025,-2.6033,-2.6042,-2.6128,-2.6148,-2.6164,0,0,0,0,0,0,-2.5851,-2.5839,-2.5812,-2.5891,-2.59,-2.5892,-2.5936,-2.5902,-2.5924,-2.5915,-2.5877,-2.5878,-2.5948,-2.5946,-2.5897,-2.6024,-2.596,-2.5971,-2.6022,-2.6041,-2.6056,-2.6055,-2.5822,0,0,0,0,0,-2.588,-2.5917,-2.5904,-2.5975,-2.5981,-2.5958,-2.5976,-2.5952,-2.596,-2.5964,-2.5958,-2.5968,-2.5998,-2.602,-2.6047,-2.6133,-2.6132,-2.6176,-2.6191,-2.6203,-2.6214,-2.6259,-2.6278,-2.6074,-2.6074,-2.6074,0,0,-2.5939,-2.5937,-2.5963,-2.5993,-2.5997,-2.6036,-2.5962,-2.6006,-2.6035,-2.597,-2.603,-2.6026,-2.6034,-2.6109,-2.6142,-2.611,-2.627,-2.6214,-2.6225,-2.6228,-2.627,-2.6289,-2.6307,-2.608,-2.6079,-2.6078,0,0,-2.6068,-2.607,-2.6129,-2.6135,-2.6143,-2.6127,-2.6142,-2.6139,-2.6134,-2.6193,-2.6146,-2.6179,-2.6233,-2.624,-2.6251,-2.6383,-2.6345,-2.6393,-2.6473,-2.6518,-2.6534,-2.6548,-2.6595,-2.6612,-2.6403,-2.6403,-2.6403,0,-2.6141,-2.6198,-2.6164,-2.6212,-2.6226,-2.617,-2.6229,-2.6237,-2.6253,-2.6264,-2.6228,-2.6295,-2.6296,-2.6373,-2.6405,-2.6415,-2.6431,-2.6393,-2.6534,-2.6548,-2.6561,-2.6605,-2.6623,-2.6409,-2.6408,-2.6408,-2.6407,0,-2.6287,-2.6328,-2.6375,-2.6392,-2.6412,-2.6465,-2.6439,-2.6463,-2.6438,-2.6426,-2.6487,-2.6486,-2.6513,-2.6529,-2.6504,-2.6602,-2.6582,-2.6541,-2.6476,-2.6586,-2.6628,-2.6644,-2.6417,-2.6415,-2.6413,-2.6412,0,0,-2.6472,-2.647,-2.6488,-2.6496,-2.65,-2.653,-2.6581,-2.6607,-2.6628,-2.6642,-2.6683,-2.673,-2.6692,-2.6705,-2.668,-2.672,-2.6825,-2.6674,-2.6673,-2.6702,-2.6933,-2.6964,-2.6984,-2.6799,-2.6802,-2.6805,-2.6932,0,-2.6598,-2.6685,-2.6656,-2.6745,-2.6782,-2.6728,-2.6773,-2.678,-2.6771,-2.68,-2.6789,-2.6823,-2.677,-2.6777,-2.6814,-2.6804,-2.687,-2.6794,-2.6838,-2.684,-2.6838,-2.7006,-2.7039,-2.7159,-2.6948,-2.695,-2.6952,0,-2.6757,-2.6777,-2.6869,-2.6867,-2.6882,-2.6922,-2.6944,-2.6973,-2.698,-2.697,-2.6984,-2.6952,-2.7001,-2.6937,-2.7005,-2.6954,-2.697,-2.6968,-2.6971,-2.6975,-2.6903,-2.7014,-2.7196,-2.7214,-2.6977,-2.6975,-2.6974,0,-2.6883,-2.6933,-2.6994,-2.7002,-2.7002,-2.7031,-2.7032,-2.7036,-2.7054,-2.7072,-2.7083,-2.7108,-2.7121,-2.7141,-2.7115,-2.7071,-2.7187,-2.7121,-2.718,-2.7181,-2.7208,-2.7206,-2.7396,-2.7218,-2.7218,-2.7217,-2.7217,0,-2.7027,-2.7086,-2.7051,-2.7089,-2.7153,-2.7119,-2.7183,-2.7178,-2.7182,-2.7218,-2.7173,-2.7208,-2.7172,-2.7204,-2.7184,-2.7244,-2.725,-2.7243,-2.7237,-2.7248,-2.7249,-2.7258,-2.7249,-2.7222,-2.7221,-2.722,-2.7219,0,-2.7179,-2.7158,-2.7222,-2.7216,-2.7216,-2.7264,-2.7258,-2.7293,-2.728,-2.7326,-2.7335,-2.7315,-2.7349,-2.7326,-2.736,-2.7347,-2.7425,-2.7408,-2.7423,-2.7418,-2.748,-2.7474,-2.7682,-2.7707,-2.7513,-2.7515,-2.7516,0,-2.7273,-2.7317,-2.7316,-2.7337,-2.7341,-2.7375,-2.7393,-2.7361,-2.7381,-2.7393,-2.7426,-2.7457,-2.748,-2.7538,-2.7526,-2.7552,-2.7535,-2.7606,-2.7539,-2.7547,-2.7536,-2.7534,-2.7538,-2.762,-2.7622,-2.7624,-2.7625,0,-2.7441,-2.7429,-2.7456,-2.748,-2.7503,-2.752,-2.7533,-2.7553,-2.7521,-2.7546,-2.7581,-2.7599,-2.7634,-2.7665,-2.7687,-2.7687,-2.7652,-2.7647,-2.7662,-2.7673,-2.768,-2.7677,-2.746,-2.7642,-2.764,-2.7639,-2.7638,-2.7637,-2.7567,-2.7603,-2.7609,-2.764,-2.7647,-2.7661,-2.7694,-2.7685,-2.7713,-2.774,-2.7719,-2.7761,-2.7767,-2.7792,-2.7797,-2.7829,-2.78,-2.7823,-2.7828,-2.7834,-2.7843,-2.7675,-2.7833,-2.7833,-2.7832,-2.7832,-2.7831,0,-2.7733,-2.7734,-2.7763,-2.7784,-2.7809,-2.7773,-2.7786,-2.781,-2.7847,-2.7856,-2.7879,-2.7919,-2.7949,-2.794,-2.7967,-2.7994,-2.7978,-2.8002,-2.8,-2.8001,-2.7867,-2.7852,-2.8015,-2.8015,-2.8015,-2.8015,-2.8014,-2.8014,-2.7823,-2.7883,-2.7871,-2.7934,-2.7934,-2.7974,-2.7985,-2.7997,-2.8004,-2.8051,-2.8076,-2.807,-2.8071,-2.8097,-2.8123,-2.812,-2.8132,-2.8162,-2.8153,-2.8028,-2.801,-2.7993,-2.7978,-2.8165,-2.8165,-2.8283,-2.8284,-2.8285]},{"header":{"parameterUnit":"m.s-1","parameterCategory":1,"la1":30.2991,"la2":30.254,"lo1":-89.0895,"lo2":-89.0444,"dy":0.0017,"dx":0.0017,"nx":28,"ny":28,"refTime":"2024-11-23T03:00:00:Z","depth":0,"parameterNumber":3,"parameterNumberName":"V-component_of_WINDS"},"data":[0,0,0,0,0,0,0,0,0,0,0,0,0,0,0,0,0,0,0,0,0,0,0,0,0,0,0,0,0,0,0,0,0,0,0,0,0,0,0,0,0,0,0,0,0,0,0,0,0,0,0,0,0,0,0,0,0,0,-2.0729,-2.073,0,-2.0776,-2.0776,-2.0777,-2.077,-2.077,-2.0769,-2.0768,-2.0814,-2.0816,-2.0818,0,0,0,0,0,0,0,0,0,0,0,0,0,-2.0632,-2.0634,-2.0729,-2.073,-2.073,-2.0776,-2.0776,-2.0777,-2.0771,-2.077,-2.0769,-2.0768,-2.0814,-2.0816,-2.0818,0,0,0,0,0,0,0,0,0,0,0,0,0,-2.0676,-2.0634,-2.0729,-2.0733,-2.0733,-2.0776,-2.0776,-2.0777,-2.0771,-2.077,-2.0769,-2.0767,-2.0813,-2.0816,-2.0819,-2.086,0,0,-2.0828,-2.0829,0,0,0,0,0,0,0,0,-2.0673,-2.0679,-2.0731,-2.0732,-2.0733,-2.0766,-2.0759,-2.0805,-2.0771,-2.0757,-2.0768,-2.0767,-2.0799,-2.0803,-2.0814,-2.0862,-2.0864,-2.0828,-2.083,-2.0831,-2.0832,0,0,0,0,0,0,0,-2.067,-2.0677,-2.0747,-2.0732,-2.0733,-2.0731,-2.0736,-2.0768,-2.0784,-2.0758,-2.0757,-2.0763,-2.0799,-2.0812,-2.0815,-2.0865,-2.0828,-2.083,-2.0832,-2.0833,-2.0947,-2.0948,0,0,0,0,0,0,-2.0667,-2.0675,-2.0746,-2.0749,-2.07,-2.0734,-2.0739,-2.0757,-2.0783,-2.0786,-2.0764,-2.0763,-2.0807,-2.0812,-2.0817,-2.0866,-2.0831,-2.0834,-2.0835,-2.0946,-2.0947,-2.0949,0,0,0,0,0,0,-2.0665,-2.0673,-2.0744,-2.0712,-2.0721,-2.0737,-2.0756,-2.0758,-2.077,-2.0788,-2.0791,-2.0774,-2.0806,-2.0813,-2.0849,-2.0868,-2.0835,-2.0838,-2.0944,-2.0946,-2.0948,-2.0965,0,0,0,0,0,0,-2.0662,-2.0672,-2.0689,-2.0712,-2.0722,-2.0776,-2.0758,-2.076,-2.0776,-2.0774,-2.0798,-2.0801,-2.0806,-2.0845,-2.0852,-2.0871,-2.084,-2.0943,-2.0945,-2.0947,-2.0963,-2.0968,-2.0971,0,0,0,0,0,-2.0658,-2.0692,-2.069,-2.0698,-2.0743,-2.0777,-2.0783,-2.0789,-2.0777,-2.0793,-2.0805,-2.08,-2.0865,-2.0849,-2.0857,-2.0877,-2.0941,-2.0944,-2.0947,-2.0961,-2.0967,-2.0971,0,0,0,0,0,0,-2.067,-2.0695,-2.0693,-2.0735,-2.0754,-2.0776,-2.0797,-2.0795,-2.0817,-2.0815,-2.0821,-2.0826,-2.0863,-2.0873,-2.0855,-2.0917,-2.0901,-2.0906,-2.0909,-2.0915,-2.0919,-2.0915,-2.0842,0,0,0,0,0,-2.0677,-2.0703,-2.0724,-2.0759,-2.0768,-2.0781,-2.0796,-2.0799,-2.0819,-2.0827,-2.084,-2.0859,-2.0884,-2.09,-2.0923,-2.0965,-2.0969,-2.0982,-2.0987,-2.099,-2.0994,-2.1015,-2.1021,-2.0958,-2.0958,-2.0958,0,0,-2.0693,-2.071,-2.0726,-2.0761,-2.0776,-2.0802,-2.0788,-2.0816,-2.0835,-2.0831,-2.0866,-2.0876,-2.0898,-2.0936,-2.0954,-2.0946,-2.1012,-2.0993,-2.0996,-2.0998,-2.1019,-2.1025,-2.103,-2.096,-2.096,-2.0959,0,0,-2.0734,-2.075,-2.0781,-2.0796,-2.0819,-2.0827,-2.0835,-2.0857,-2.0864,-2.0899,-2.0896,-2.0918,-2.0961,-2.0976,-2.0989,-2.1035,-2.1031,-2.1042,-2.1064,-2.1085,-2.109,-2.1094,-2.111,-2.1116,-2.1046,-2.1046,-2.1046,0,-2.075,-2.079,-2.0797,-2.0825,-2.084,-2.0838,-2.0868,-2.0883,-2.0912,-2.0922,-2.0913,-2.0966,-2.098,-2.1022,-2.1033,-2.1044,-2.1052,-2.104,-2.1089,-2.1093,-2.1098,-2.1113,-2.1119,-2.1047,-2.1047,-2.1047,-2.1047,0,-2.0809,-2.0836,-2.0858,-2.0887,-2.0905,-2.0934,-2.0944,-2.0961,-2.0962,-2.097,-2.1006,-2.1023,-2.1049,-2.1059,-2.1061,-2.1101,-2.1095,-2.1088,-2.1071,-2.1105,-2.1119,-2.1125,-2.1049,-2.1049,-2.1048,-2.1048,0,0,-2.0859,-2.0891,-2.0898,-2.0911,-2.0936,-2.0957,-2.0986,-2.1012,-2.1026,-2.1046,-2.107,-2.1105,-2.1098,-2.1113,-2.1116,-2.1134,-2.1169,-2.1124,-2.1125,-2.1131,-2.1213,-2.1218,-2.1225,-2.1166,-2.1167,-2.1168,-2.1211,0,-2.0903,-2.0954,-2.096,-2.1006,-2.1031,-2.1028,-2.1053,-2.107,-2.1079,-2.11,-2.111,-2.1134,-2.1123,-2.1132,-2.115,-2.1161,-2.1185,-2.1158,-2.1187,-2.1188,-2.1182,-2.1233,-2.1239,-2.1278,-2.1217,-2.1218,-2.1218,0,-2.0961,-2.0983,-2.1031,-2.1052,-2.1062,-2.1085,-2.1109,-2.113,-2.1149,-2.1154,-2.117,-2.117,-2.1199,-2.1181,-2.122,-2.1201,-2.1214,-2.122,-2.1222,-2.1225,-2.1205,-2.1236,-2.1291,-2.1297,-2.1227,-2.1227,-2.1226,0,-2.0992,-2.1033,-2.1067,-2.1078,-2.1104,-2.1119,-2.113,-2.1148,-2.1164,-2.1184,-2.1194,-2.1217,-2.123,-2.1248,-2.1254,-2.1241,-2.1292,-2.1276,-2.1296,-2.1296,-2.1307,-2.1307,-2.1364,-2.1316,-2.1316,-2.1316,-2.1316,0,-2.104,-2.1069,-2.1082,-2.1103,-2.1135,-2.1141,-2.1173,-2.1183,-2.1199,-2.1221,-2.122,-2.124,-2.1247,-2.1269,-2.1274,-2.1305,-2.131,-2.1314,-2.1315,-2.1314,-2.1314,-2.1322,-2.132,-2.1317,-2.1317,-2.1317,-2.1316,0,-2.108,-2.109,-2.1127,-2.1147,-2.1153,-2.1176,-2.1193,-2.1213,-2.1221,-2.1249,-2.1255,-2.1268,-2.1293,-2.1301,-2.1331,-2.1334,-2.137,-2.1369,-2.1364,-2.1364,-2.1384,-2.1382,-2.1449,-2.1458,-2.1404,-2.1405,-2.1405,0,-2.111,-2.1132,-2.1156,-2.117,-2.1182,-2.1206,-2.1222,-2.1228,-2.1244,-2.1267,-2.1284,-2.1308,-2.1329,-2.1369,-2.138,-2.1403,-2.1402,-2.1424,-2.1405,-2.1403,-2.1401,-2.14,-2.1401,-2.1427,-2.1428,-2.1428,-2.1428,0,-2.1161,-2.1165,-2.1188,-2.1212,-2.123,-2.1249,-2.1268,-2.128,-2.1289,-2.1306,-2.1332,-2.1348,-2.1378,-2.1403,-2.1426,-2.1436,-2.1434,-2.1434,-2.144,-2.1439,-2.1435,-2.1437,-2.1373,-2.1433,-2.1432,-2.1432,-2.1432,-2.1431,-2.1197,-2.1217,-2.1236,-2.1261,-2.1275,-2.1292,-2.1311,-2.1322,-2.1344,-2.137,-2.1372,-2.1399,-2.1417,-2.1448,-2.1459,-2.148,-2.1474,-2.1482,-2.1485,-2.1486,-2.1488,-2.1432,-2.1484,-2.1484,-2.1484,-2.1484,-2.1484,0,-2.1248,-2.126,-2.1283,-2.1309,-2.1328,-2.1324,-2.1344,-2.136,-2.1385,-2.1402,-2.1422,-2.1451,-2.1474,-2.1487,-2.151,-2.1524,-2.1524,-2.153,-2.1529,-2.1531,-2.1493,-2.1485,-2.153,-2.153,-2.153,-2.153,-2.153,-2.153,-2.1277,-2.1309,-2.1315,-2.1354,-2.1366,-2.1394,-2.1405,-2.142,-2.1434,-2.1467,-2.1486,-2.1495,-2.151,-2.1534,-2.1555,-2.1558,-2.1566,-2.1573,-2.1575,-2.1539,-2.1534,-2.153,-2.1522,-2.1575,-2.1575,-2.1612,-2.1613,-2.1613]}]]